Temperature
-0 0 -0 -1 -1 -1 -2 -1 -1 -0 0 -0 -1 -1 -1 -1 -1 -2 -2 -2 -2 -2 -2 -3 -3 -3 -3 -3 -3 -3 -3 -3 -3 -3 -3 -3 -3 -3 -3 -3 -3 -3 -3 -3
-2 -0 -1 -1 -1 -1 -1 -1 -1 -1 -1 -1 -1 -1 -2 -2 -3 -3 -2 -3 -3 -3 -3 -3 -3 -3 -3 -3 -3 -3 -3 -4 -4 -4 -4 -4 -4 -4 -4 -4 -4 -4 -4 -4
-2 -1 -1 -2 -2 -2 -2 -2 -2 -2 -2 -2 -3 -3 -3 -3 -3 -3 -3 -3 -3 -3 -3 -3 -4 -4 -4 -4 -4 -4 -4 -4 -4 -4 -4 -4 -4 -4 -4 -4 -5 -5 -5 -5
-2 -2 -3 -2 -2 -2 -3 -3 -3 -3 -3 -3 -3 -3 -3 -3 -4 -4 -4 -4 -4 -4 -4 -4 -4 -4 -4 -5 -5 -5 -5 -5 -5 -5 -5 -5 -5 -5 -5 -5 -5 -5 -5 -5
-3 -3 -2 -2 -3 -4 -4 -4 -4 -4 -4 -4 -4 -4 -4 -4 -4 -4 -5 -5 -5 -5 -5 -5 -5 -5 -5 -5 -5 -5 -5 -5 -5 -6 -6 -6 -6 -6 -6 -6 -6 -6 -6 -6
-3 -3 -3 -3 -4 -4 -4 -5 -5 -5 -5 -5 -5 -5 -5 -5 -5 -5 -5 -5 -5 -5 -5 -5 -5 -6 -6 -5 -6 -6 -6 -6 -6 -6 -6 -6 -6 -7 -7 -7 -7 -7 -7 -7
-4 -4 -4 -5 -5 -4 -4 -5 -5 -5 -5 -6 -6 -6 -6 -5 -6 -6 -6 -6 -6 -6 -6 -6 -6 -6 -6 -6 -6 -7 -7 -7 -7 -7 -7 -7 -7 -7 -7 -8 -8 -8 -8 -8
-4 -4 -4 -6 -6 -6 -6 -5 -6 -6 -6 -6 -6 -6 -7 -6 -7 -7 -7 -7 -7 -7 -7 -7 -7 -7 -7 -7 -7 -7 -7 -8 -7 -8 -8 -8 -8 -8 -8 -8 -8 -8 -8 -8
-5 -5 -6 -6 -6 -6 -6 -7 -7 -7 -7 -7 -7 -7 -7 -7 -7 -7 -7 -7 -7 -7 -7 -7 -7 -8 -8 -7 -8 -8 -8 -8 -8 -8 -8 -8 -9 -9 -9 -9 -9 -9 -9 -9
-6 -7 -7 -7 -7 -7 -7 -7 -7 -7 -8 -8 -8 -8 -8 -8 -8 -8 -8 -8 -8 -8 -8 -8 -8 -8 -8 -8 -8 -9 -9 -9 -9 -9 -9 -9 -9 -9 -9 -9 -9 -10 -10 -9
-8 -8 -7 -7 -7 -7 -8 -8 -8 -8 -8 -8 -8 -9 -9 -9 -9 -9 -9 -9 -9 -9 -9 -9 -9 -9 -8 -9 -9 -9 -9 -9 -9 -9 -9 -9 -10 -10 -10 -10 -10 -10 -10 -10
-8 -8 -9 -8 -8 -8 -8 -8 -8 -9 -9 -9 -9 -9 -9 -9 -9 -9 -9 -9 -9 -9 -9 -9 -9 -9 -9 -9 -9 -9 -10 -10 -10 -10 -10 -10 -10 -10 -10 -10 -10 -10 -10 -10
-8 -8 -8 -8 -9 -9 -9 -9 -9 -9 -9 -9 -9 -9 -9 -10 -10 -10 -10 -10 -10 -10 -10 -10 -10 -10 -10 -10 -10 -10 -10 -10 -10 -10 -11 -11 -11 -11 -11 -11 -10 -10 -10 -10
-9 -9 -9 -9 -9 -9 -9 -9 -9 -9 -10 -10 -10 -10 -10 -10 -10 -10 -10 -10 -10 -10 -10 -10 -10 -10 -10 -11 -11 -11 -11 -11 -11 -11 -11 -11 -11 -11 -11 -11 -11 -11 -11 -11
-10 -10 -10 -10 -10 -10 -10 -10 -10 -10 -10 -10 -10 -10 -10 -11 -11 -11 -11 -11 -11 -11 -11 -11 -11 -11 -11 -11 -11 -11 -11 -11 -11 -11 -12 -12 -12 -12 -12 -12 -11 -11 -11 -11
-10 -10 -10 -10 -10 -10 -10 -10 -10 -10 -10 -10 -11 -11 -11 -11 -11 -11 -11 -11 -11 -11 -11 -11 -11 -11 -11 -11 -11 -11 -11 -11 -12 -12 -12 -12 -12 -12 -12 -12 -12 -12 -12 -12
-11 -11 -11 -11 -11 -11 -11 -11 -11 -11 -11 -11 -11 -11 -11 -11 -11 -11 -11 -11 -11 -11 -11 -12 -12 -12 -12 -12 -12 -12 -12 -12 -12 -12 -12 -12 -12 -12 -12 -12 -12 -12 -12 -12
-11 -11 -11 -11 -11 -11 -11 -11 -11 -11 -11 -11 -11 -12 -11 -11 -12 -12 -12 -12 -12 -12 -12 -12 -12 -12 -12 -12 -12 -12 -12 -12 -12 -13 -13 -13 -13 -12 -12 -13 -13 -13 -13 -12
-11 -11 -11 -11 -11 -11 -11 -11 -11 -11 -11 -12 -12 -12 -12 -12 -12 -12 -12 -12 -12 -12 -12 -13 -13 -13 -13 -12 -12 -12 -12 -13 -13 -13 -13 -13 -13 -13 -13 -13 -13 -13 -13 -13
-11 -11 -11 -11 -11 -11 -11 -11 -12 -12 -12 -12 -12 -12 -12 -12 -13 -13 -13 -13 -13 -13 -13 -13 -13 -13 -13 -13 -13 -13 -13 -13 -13 -13 -13 -13 -13 -13 -13 -13 -13 -13 -13 -13
-12 -11 -11 -11 -11 -12 -12 -12 -12 -12 -12 -12 -12 -13 -13 -13 -13 -13 -13 -13 -13 -14 -14 -14 -13 -13 -13 -13 -13 -13 -13 -13 -13 -13 -14 -14 -14 -14 -14 -14 -14 -14 -14 -14
-12 -12 -12 -12 -12 -12 -12 -12 -12 -13 -13 -13 -13 -13 -13 -13 -14 -14 -14 -14 -14 -14 -14 -14 -14 -14 -14 -14 -14 -14 -14 -14 -14 -14 -14 -14 -14 -14 -14 -14 -14 -14 -14 -14
-12 -12 -12 -12 -12 -13 -13 -13 -13 -13 -13 -13 -13 -13 -14 -14 -14 -14 -14 -14 -14 -15 -15 -15 -15 -15 -15 -14 -14 -14 -14 -14 -14 -14 -14 -14 -14 -14 -14 -14 -14 -14 -14 -14
-13 -13 -13 -13 -13 -13 -13 -13 -13 -13 -14 -14 -14 -14 -14 -14 -14 -15 -15 -15 -15 -15 -15 -15 -15 -15 -15 -15 -15 -14 -14 -15 -15 -15 -15 -15 -15 -15 -15 -15 -15 -15 -15 -15
-13 -13 -13 -13 -13 -14 -14 -14 -14 -14 -14 -14 -14 -14 -15 -15 -15 -15 -15 -15 -15 -15 -15 -15 -15 -15 -15 -15 -15 -15 -15 -15 -15 -15 -15 -15 -15 -15 -15 -15 -15 -15 -15 -15
-14 -14 -14 -14 -14 -14 -14 -14 -14 -15 -15 -15 -15 -15 -15 -15 -15 -15 -15 -15 -16 -16 -16 -16 -16 -16 -16 -16 -16 -16 -15 -15 -15 -15 -15 -15 -15 -15 -15 -15 -15 -15 -15 -15
-14 -14 -14 -14 -14 -15 -15 -15 -15 -15 -15 -15 -15 -15 -16 -16 -16 -16 -16 -16 -16 -16 -16 -16 -16 -16 -16 -16 -16 -16 -16 -16 -16 -16 -16 -16 -16 -16 -15 -15 -15 -15 -15 -15
Wind_Speed
7 7 5 6 7 7 8 8 8 8 7 6 3 2 2 2 1 1 0 1 1 1 1 1 1 1 1 1 2 2 2 2 2 2 2 2 2 2 2 3 4 3 4 4
6 6 5 8 9 9 10 10 10 10 9 4 2 1 1 2 2 2 2 1 1 1 1 1 1 1 0 1 1 2 2 2 2 2 2 2 2 2 3 3 3 3 4 5
5 3 4 7 8 9 7 5 6 9 7 3 2 1 2 3 3 3 3 3 2 2 2 2 1 1 1 1 1 1 2 2 2 2 2 3 3 3 3 4 4 4 5 5
3 2 6 5 1 3 5 5 5 4 3 3 3 3 2 2 3 3 3 3 3 2 1 1 1 1 1 1 1 2 2 3 3 2 3 3 3 4 4 4 4 5 6 6
3 4 6 3 1 1 3 5 3 4 4 4 3 2 3 2 2 2 3 4 3 2 1 1 1 1 1 1 2 2 3 3 3 3 3 3 4 4 4 4 5 5 6 6
3 4 5 3 2 1 0 4 2 2 3 4 3 3 5 4 4 4 4 3 2 1 0 1 1 1 1 2 2 3 3 3 3 3 4 4 4 5 4 5 5 6 6 6
5 5 5 3 3 1 2 5 3 2 3 3 3 5 5 5 5 4 3 2 1 0 0 1 1 1 1 2 3 3 2 2 3 3 4 4 4 4 4 5 5 5 7 7
4 5 6 1 1 2 4 3 3 4 4 4 5 5 5 4 4 4 3 2 1 1 1 1 0 1 1 3 2 2 2 3 3 4 4 4 4 4 4 4 5 5 6 7
4 5 2 1 2 2 2 4 4 5 5 4 5 5 5 5 4 3 2 2 1 1 1 2 1 1 2 3 2 1 2 3 3 4 4 4 4 4 4 4 4 5 5 6
4 5 3 2 2 3 3 4 5 5 5 4 5 5 5 4 3 3 2 2 1 1 1 2 2 2 2 2 2 2 2 3 3 3 4 4 4 4 4 4 5 5 5 6
5 4 4 3 3 5 5 4 5 5 5 4 4 5 4 3 3 3 3 2 1 1 2 3 2 2 2 2 1 2 2 3 3 3 3 3 4 4 5 5 6 6 5 6
5 3 3 5 4 4 5 5 5 5 5 5 3 3 3 3 2 2 2 2 2 2 2 2 2 2 2 2 1 2 2 3 3 3 3 3 3 4 6 7 9 10 10 9
5 4 4 6 5 4 4 5 4 4 4 4 3 2 2 2 2 2 2 2 2 2 2 2 2 3 3 3 2 2 3 3 3 3 3 3 4 4 5 6 8 9 10 11
3 3 4 4 5 4 4 4 3 3 2 2 2 2 2 2 2 2 2 2 2 2 2 2 2 3 4 3 2 2 3 4 4 3 3 3 4 4 4 4 5 5 7 10
4 3 4 4 3 4 3 3 3 3 3 3 2 2 2 2 2 3 3 2 2 2 2 2 3 4 4 3 2 2 3 2 3 3 3 3 3 3 3 4 4 5 5 6
4 3 3 3 4 4 3 3 3 3 3 3 2 2 2 2 2 3 2 2 1 2 3 3 3 4 4 3 3 3 3 5 4 3 2 3 3 3 3 3 4 5 5 5
2 2 3 4 4 4 3 3 2 3 3 2 2 2 2 2 2 3 3 2 2 2 3 3 4 4 4 3 3 3 3 3 5 4 3 3 3 3 3 4 4 5 5 6
3 3 3 3 3 4 4 3 2 2 2 2 2 2 2 2 2 3 3 3 3 3 4 4 3 4 3 3 2 2 3 3 2 2 3 3 3 3 3 4 4 5 5 6
2 2 2 2 3 2 2 3 2 2 2 1 1 2 2 2 2 2 2 2 3 4 5 4 7 5 4 4 4 2 3 3 2 3 3 4 4 3 3 4 4 5 5 5
3 2 2 2 2 2 2 2 2 2 2 1 1 2 2 3 3 3 2 2 2 3 4 5 5 4 4 4 5 3 3 3 3 3 3 3 3 3 4 4 4 5 5 5
3 3 3 2 3 3 2 2 2 2 2 2 1 2 2 3 3 2 2 3 3 4 4 6 4 4 4 5 5 3 3 3 3 3 3 3 4 4 4 4 4 5 5 5
3 3 3 2 2 3 3 2 2 2 2 2 2 2 2 3 3 3 2 3 4 6 5 3 3 5 7 6 3 3 3 3 3 3 3 3 4 4 4 5 5 5 5 5
3 3 3 2 2 3 3 2 2 1 2 2 2 2 2 3 2 2 4 3 3 6 5 3 6 9 9 4 3 3 4 4 3 3 3 4 4 4 5 5 5 5 5 6
3 3 3 3 2 2 3 3 3 2 2 2 2 2 2 2 3 2 3 6 8 8 4 6 9 9 8 3 3 3 4 4 4 4 4 4 4 4 5 5 5 5 6 6
3 3 3 3 2 2 3 3 3 3 2 2 2 2 2 2 3 3 3 4 7 8 4 6 9 9 5 3 4 4 4 4 5 4 4 4 4 5 5 5 5 6 6 6
2 2 2 2 2 2 2 2 2 2 2 3 3 2 2 2 2 3 3 3 5 7 5 4 5 6 4 4 4 4 4 5 6 5 5 5 5 5 5 5 6 6 6 6
2 2 2 2 3 2 2 2 3 3 3 3 4 3 3 3 3 3 3 3 4 4 4 4 4 4 4 4 4 4 4 5 5 5 5 4 5 5 5 6 6 6 7 7
Wind_Direction
267 271 253 253 249 227 218 229 236 256 260 263 276 274 288 311 347 10 219 136 181 204 222 222 215 190 163 160 156 163 168 188 210 216 218 220 222 230 246 252 258 257 261 265
276 261 255 264 255 239 235 238 248 264 271 283 292 6 7 352 334 311 305 280 262 236 224 232 234 231 179 178 179 168 181 209 220 217 221 223 227 234 245 252 255 256 257 260
264 276 300 265 243 230 229 229 228 246 259 303 313 321 305 302 295 284 297 288 274 249 230 227 227 217 221 226 203 181 199 220 224 223 231 238 245 249 248 248 254 258 258 258
267 284 246 244 197 194 210 240 235 252 286 292 287 298 303 291 282 295 304 297 290 270 246 235 237 213 229 227 204 207 216 227 230 229 244 252 250 251 252 254 252 256 259 256
238 251 260 263 286 194 218 262 270 262 289 321 334 324 309 342 335 301 296 294 289 276 255 241 212 187 176 238 224 223 231 232 233 233 242 248 252 256 261 261 262 260 261 256
238 250 255 257 310 337 142 261 319 301 287 304 336 295 289 333 326 313 313 308 306 294 254 220 236 170 177 231 230 238 245 248 247 245 246 250 253 260 264 264 266 268 269 263
237 247 257 271 290 40 201 257 330 319 293 291 266 260 290 319 320 317 318 320 330 330 279 259 236 165 217 242 246 249 258 267 266 262 258 256 259 263 261 266 265 265 268 268
218 235 250 306 88 189 237 318 333 326 317 303 294 301 309 313 318 322 323 327 338 344 311 312 302 195 242 261 264 252 256 266 269 269 268 266 258 265 263 258 260 263 266 269
211 226 239 188 199 259 317 312 316 318 314 306 299 298 302 305 307 306 306 307 318 305 303 313 312 243 248 270 273 264 263 266 268 273 271 264 257 261 262 256 258 263 263 265
257 257 257 253 285 313 313 301 308 309 304 299 287 289 295 300 303 303 305 298 308 309 295 303 306 293 263 266 261 258 266 274 272 270 271 269 267 261 258 256 259 263 264 268
250 271 295 274 292 299 303 306 308 310 304 295 288 289 289 292 292 290 300 310 299 265 275 287 303 305 296 275 231 248 265 274 278 278 274 276 277 269 266 262 261 266 267 270
247 259 264 279 298 305 303 304 307 312 315 313 296 287 293 291 293 296 301 309 308 300 292 290 301 306 305 295 258 247 268 278 279 278 276 277 280 292 290 281 282 281 281 280
253 283 273 280 298 311 300 299 301 301 297 307 314 301 298 302 313 320 317 314 308 303 300 304 313 309 305 298 285 266 265 276 277 274 269 271 273 277 290 298 293 289 289 291
284 302 290 293 302 309 304 305 309 321 328 326 328 336 338 338 338 331 316 311 313 316 317 315 316 310 307 299 293 283 280 285 284 273 269 272 274 276 279 287 298 301 301 302
304 287 274 297 313 321 324 330 340 343 347 350 355 355 355 348 334 323 320 325 337 337 324 323 322 315 314 307 304 298 295 289 283 275 272 276 282 285 288 288 292 300 306 309
306 300 294 301 305 315 325 331 326 321 330 335 345 343 338 336 330 327 330 342 337 321 319 321 314 309 312 312 309 303 296 296 299 291 284 285 285 288 295 297 297 299 303 308
292 292 297 302 301 306 305 300 295 300 314 317 320 331 345 350 342 336 333 332 320 307 311 309 303 306 309 305 299 299 298 297 303 303 295 292 293 295 298 300 302 303 302 304
262 264 268 272 283 291 298 305 309 308 304 307 334 349 345 333 316 316 323 330 337 338 328 311 307 310 308 305 305 297 293 289 290 292 297 299 301 300 303 302 303 303 305 308
292 285 286 290 287 287 299 313 318 316 320 333 348 329 318 310 305 310 325 336 334 328 324 319 329 334 322 317 321 302 296 300 308 303 302 305 313 315 310 304 303 304 306 308
329 334 332 331 335 325 321 327 330 334 334 345 347 334 329 323 320 318 320 315 305 299 306 320 329 322 318 316 321 312 309 309 306 307 311 312 311 310 308 305 305 307 309 309
341 348 352 350 348 346 343 339 339 329 331 345 335 311 309 315 318 319 320 317 320 318 319 326 333 323 321 323 326 322 311 308 310 310 311 311 311 310 310 310 309 310 311 311
340 345 345 351 357 349 345 346 340 332 336 338 333 327 323 320 319 315 305 291 305 319 329 323 322 321 326 331 333 325 317 309 307 307 306 305 306 309 309 309 309 310 312 312
338 342 344 346 341 332 335 337 328 321 314 308 306 304 300 298 304 308 313 315 311 320 328 316 318 323 330 340 332 324 320 316 311 309 306 305 305 305 305 306 307 308 309 310
345 347 343 339 346 349 339 332 326 317 301 292 293 294 296 304 310 306 291 312 323 324 325 318 325 329 336 342 329 321 316 311 307 302 300 301 303 303 302 303 304 305 306 307
342 339 342 347 344 330 321 325 330 328 322 312 309 311 307 297 292 303 307 308 317 324 323 322 327 332 339 331 324 317 311 303 300 301 301 304 303 302 302 301 302 302 303 302
338 334 328 325 314 312 319 324 321 321 324 321 320 319 316 306 294 295 301 306 309 319 324 317 318 323 325 319 313 310 306 306 309 309 304 300 298 299 300 302 301 300 300 300
338 335 336 335 333 329 324 316 309 308 311 307 306 311 314 315 312 311 309 309 311 312 310 311 314 313 311 309 307 305 303 301 301 301 302 300 299 299 300 299 299 299 298 297
Height
1475 1471 1473 1474 1475 1476 1478 1475 1475 1467 1465 1464 1464 1464 1464 1464 1464 1464 1464 1464 1464 1464 1465 1465 1466 1467 1467 1468 1469 1470 1471 1472 1474 1475 1476 1476 1477 1478 1478 1478 1478 1479 1479 1479
1476 1470 1470 1470 1469 1470 1470 1470 1469 1466 1465 1463 1462 1462 1463 1463 1463 1462 1462 1462 1462 1462 1462 1463 1463 1463 1464 1464 1465 1467 1467 1468 1469 1470 1471 1472 1472 1473 1473 1473 1473 1474 1474 1474
1475 1471 1471 1471 1467 1466 1466 1465 1466 1465 1463 1462 1462 1462 1462 1461 1461 1460 1460 1460 1460 1459 1459 1459 1460 1460 1460 1461 1462 1463 1463 1464 1465 1466 1466 1467 1468 1468 1468 1468 1468 1468 1468 1468
1476 1475 1477 1465 1460 1460 1462 1463 1462 1462 1461 1460 1460 1460 1460 1459 1459 1458 1458 1457 1457 1456 1456 1456 1457 1457 1457 1458 1458 1459 1459 1460 1461 1461 1462 1462 1463 1463 1463 1463 1463 1462 1462 1462
1476 1474 1466 1462 1461 1462 1463 1463 1461 1460 1459 1459 1458 1458 1457 1457 1457 1456 1455 1454 1453 1453 1452 1452 1453 1453 1453 1454 1454 1455 1455 1456 1456 1457 1457 1457 1458 1458 1458 1458 1457 1457 1457 1457
1474 1473 1469 1464 1462 1459 1462 1464 1459 1458 1458 1458 1458 1459 1456 1454 1454 1453 1452 1451 1450 1449 1449 1449 1449 1450 1450 1450 1450 1451 1451 1452 1452 1452 1453 1453 1453 1453 1453 1453 1452 1451 1451 1451
1473 1471 1466 1464 1461 1460 1466 1463 1458 1457 1456 1457 1456 1456 1454 1452 1450 1449 1448 1447 1447 1446 1446 1446 1446 1446 1446 1447 1447 1447 1448 1448 1448 1448 1448 1448 1448 1448 1447 1447 1446 1446 1445 1445
1470 1469 1467 1462 1461 1463 1461 1458 1457 1455 1455 1454 1453 1451 1450 1449 1447 1446 1445 1444 1443 1443 1443 1443 1443 1443 1443 1443 1444 1444 1444 1444 1444 1444 1444 1443 1443 1443 1442 1442 1441 1440 1439 1439
1466 1465 1461 1459 1459 1458 1458 1457 1455 1454 1452 1452 1450 1448 1447 1445 1444 1443 1442 1441 1441 1440 1440 1440 1440 1440 1440 1440 1440 1440 1440 1439 1439 1439 1439 1439 1438 1437 1437 1437 1436 1435 1434 1433
1462 1459 1458 1458 1457 1456 1456 1454 1453 1452 1450 1449 1447 1445 1443 1442 1441 1440 1439 1438 1438 1437 1437 1437 1437 1437 1437 1437 1437 1436 1436 1435 1435 1435 1434 1434 1434 1433 1433 1432 1431 1430 1429 1428
1460 1458 1456 1455 1455 1454 1453 1451 1450 1448 1447 1445 1443 1441 1440 1439 1438 1437 1436 1436 1435 1435 1434 1434 1434 1434 1434 1434 1433 1433 1432 1432 1431 1431 1430 1430 1429 1429 1428 1427 1427 1426 1425 1424
1457 1456 1456 1453 1452 1451 1450 1448 1447 1445 1443 1442 1440 1438 1437 1436 1435 1435 1434 1433 1433 1432 1432 1431 1431 1431 1431 1431 1430 1430 1429 1428 1427 1427 1426 1425 1424 1424 1423 1423 1422 1422 1421 1420
1454 1453 1452 1450 1449 1448 1447 1445 1444 1442 1441 1439 1437 1436 1435 1434 1433 1432 1432 1431 1430 1430 1429 1429 1429 1428 1428 1428 1428 1427 1425 1425 1424 1423 1422 1421 1420 1419 1418 1417 1417 1417 1416 1414
1451 1450 1449 1447 1447 1445 1444 1442 1441 1440 1438 1437 1436 1434 1433 1432 1431 1430 1429 1429 1428 1428 1427 1427 1426 1426 1426 1425 1424 1423 1422 1422 1421 1420 1419 1418 1417 1416 1415 1413 1411 1410 1410 1409
1448 1448 1447 1445 1444 1443 1442 1440 1439 1437 1436 1435 1434 1433 1432 1430 1429 1429 1428 1427 1427 1426 1425 1425 1424 1424 1423 1422 1422 1420 1419 1418 1417 1416 1416 1415 1414 1413 1411 1410 1408 1407 1405 1404
1446 1445 1444 1443 1442 1441 1439 1438 1437 1436 1435 1434 1432 1431 1431 1430 1428 1427 1427 1426 1425 1424 1424 1423 1422 1421 1421 1420 1419 1418 1416 1416 1415 1414 1412 1411 1410 1409 1408 1407 1405 1403 1402 1400
1443 1442 1441 1440 1439 1438 1438 1437 1436 1434 1433 1432 1431 1430 1429 1428 1427 1426 1425 1425 1424 1423 1422 1421 1420 1419 1418 1417 1416 1415 1414 1412 1412 1411 1410 1409 1407 1406 1405 1404 1402 1400 1398 1397
1441 1440 1439 1438 1437 1436 1435 1434 1434 1433 1432 1431 1430 1429 1427 1426 1425 1424 1424 1423 1422 1421 1421 1419 1418 1417 1416 1415 1414 1413 1411 1410 1409 1408 1407 1406 1404 1403 1402 1401 1399 1397 1395 1393
1438 1438 1437 1436 1436 1434 1433 1432 1432 1431 1430 1429 1428 1427 1426 1425 1424 1423 1422 1421 1420 1419 1418 1418 1416 1415 1414 1413 1412 1410 1409 1408 1406 1405 1404 1403 1402 1400 1399 1397 1396 1394 1392 1390
1437 1436 1435 1434 1434 1433 1432 1431 1430 1429 1428 1427 1426 1425 1424 1423 1422 1421 1420 1419 1418 1417 1416 1415 1414 1413 1411 1410 1409 1408 1406 1405 1404 1403 1402 1400 1399 1397 1396 1394 1393 1391 1389 1386
1436 1435 1434 1433 1432 1432 1431 1430 1429 1428 1427 1426 1425 1423 1422 1422 1421 1419 1418 1417 1417 1416 1415 1413 1412 1410 1409 1408 1406 1405 1404 1402 1401 1400 1399 1398 1396 1395 1393 1391 1390 1388 1385 1383
1435 1434 1433 1432 1431 1430 1430 1429 1428 1426 1425 1424 1423 1422 1421 1420 1419 1418 1417 1416 1415 1414 1412 1411 1410 1408 1407 1405 1404 1402 1401 1400 1399 1398 1396 1395 1393 1392 1390 1388 1386 1384 1382 1380
1434 1433 1432 1431 1430 1429 1428 1427 1426 1425 1424 1423 1422 1421 1420 1418 1417 1416 1415 1414 1413 1412 1410 1409 1408 1406 1405 1403 1401 1400 1399 1397 1396 1395 1394 1392 1391 1389 1387 1385 1383 1381 1379 1377
1433 1432 1431 1430 1429 1428 1426 1426 1425 1424 1423 1422 1421 1420 1418 1417 1416 1415 1413 1412 1411 1409 1408 1406 1405 1404 1402 1400 1399 1397 1396 1395 1393 1392 1391 1389 1388 1386 1384 1382 1380 1378 1376 1374
1433 1431 1430 1429 1428 1427 1426 1424 1423 1422 1421 1420 1419 1418 1417 1415 1414 1413 1411 1410 1408 1407 1405 1404 1402 1401 1399 1398 1396 1395 1393 1392 1391 1389 1388 1386 1385 1383 1381 1379 1377 1375 1373 1371
1432 1431 1429 1428 1427 1426 1425 1423 1422 1421 1419 1418 1417 1416 1415 1413 1412 1411 1409 1407 1406 1404 1403 1401 1400 1398 1397 1395 1393 1392 1390 1389 1388 1386 1385 1383 1381 1380 1378 1376 1374 1372 1370 1367
1431 1430 1429 1427 1426 1425 1424 1422 1421 1419 1418 1416 1415 1414 1413 1411 1410 1408 1407 1405 1403 1402 1400 1399 1397 1396 1394 1392 1391 1389 1387 1386 1384 1383 1381 1380 1378 1376 1374 1373 1371 1369 1366 1364